Location: Kazanice
(53.5528°N, 19.7258°E)
Time: 04:14:43
(UTC+01:00)

ISS - Pass Details

Date: 28 January 2019
Orbit: 403 x 411 km, 51.6° (Epoch: 21 February)

Event Time Altitude Azimuth Distance (km) Brightness Sun altitude
Rises 17:30:28 0° 232° (SW) 2,328 1.4 -11.1°
Reaches altitude 10° 17:32:39 10° 222° (SW) 1,471 0.0 -11.4°
Maximum altitude 17:35:40 33° 157° (SSE) 714 -2.7 -11.8°
Enters shadow 17:37:34 18° 102° (ESE) 1,086 -2.2 -12.1°
